Weather in Rujiena

Latvia     57°53′47″N   25°19′51″E
temp.,
°C
wind,
m/s
gust,
m/s
humid.,
%
clouds,
%
prec.,
mm/h
press.,
hPa
HPBL,
m
10 april, sat
sat1000:00+3sw71592100 0.6 10071220
03:00+3sw61287100 0.7 10081038
06:00+4sw61280100 0.1 10081058
09:00+5sw6127638 0.1 10091443
12:00+6wsw61258100 0.1 10101757
15:00+7wsw7124022 0.1 10122391
18:00+5w511542 0.0 10141785
21:00+1sw26690 0.0 1017160
11 april, sun
sun1100:000ssw29730 0.0 1019190
03:00−1ssw27761 0.0 1021145
06:00−1ssw26785 0.0 1022121
09:00+3s2454100 0.0 1024278
12:00+8sse3433100 0.0 10241170
15:00+10sse343072 0.0 10241543
18:00+10se364999 0.0 10231001
21:00+7se41077100 0.0 1023583
12 april, mon
mon1200:00+6se4139392 0.1 1022394
03:00+6se4139351 0.2 1021350
06:00+6sse41488100 0.0 1021364
09:00+9sse51467100 0.0 1020495
12:00+14s51146100 0.0 10201034
15:00+16s51039100 0.0 10191467
18:00+14s51044100 0.0 10181566
21:00+10s3958100 0.0 1018264
13 april, tue
tue1300:00+10ssw41068100 0.0 1018702
03:00+9s31085100 0.6 1017582
06:00+8s259293 0.1 1017298
09:00+8wsw2392100 0.1 1017345
12:00+7w2389100 0.0 1018304
15:00+6wnw2487100 0.1 1019371
18:00+4wnw3781100 0.3 1019397
21:00+3wnw3787100 0.6 1019385
14 april, wed
wed1400:00+2nw2599100 1.2 1020343
03:00+2nw2596100 1.3 1019325
06:00+2nnw2495100 0.1 1019282
09:00+3nnw2577100 0.1 1019519
12:00+6nnw3465100 0.0 1020998
15:00+8nnw455198 0.0 10191486
18:00+8n454981 0.0 10191405
21:00+3n4964100 0.0 1021508